Hourly Data Report for October 29, 2013

All times are specified in Local Standard Time (LST). Add 1 hour to adjust for Daylight Saving Time where and when it is observed.

ARVIAT A
NUNAVUT

61°05'38.000" N
94°04'18.000" W
10.40 m
2300427
71174
YEK

Download Data

Hourly Data (October 2013)
Hourly Data Report for October 29, 2013
Temp Definition
°C
Dew Point Temp Definition
°C
Rel Hum Definition
%
Wind Dir Definition
10's deg

Wind Spd Definition
km/h
Visibility Definition
km
Stn Press Definition
kPa
Hmdx Definition


Wind Chill Definition


Weather Definition


TIME
00:00 Legend Double Dagger -10.4 -12.3 86 30 13 16.1 101.60   -17 LegendNANA
01:00 Legend Double Dagger -10.1 -12.2 85 32 15 16.1 101.55   -17 LegendNANA
02:00 Legend Double Dagger -10.5 -12.4 86 34 9 16.1 101.51   -15 LegendNANA
03:00 Legend Double Dagger -10.7 -12.5 87 32 8 16.1 101.48   -15 LegendNANA
04:00 Legend Double Dagger -10.7 -12.6 86 35 13 16.1 101.45   -17 LegendNANA
05:00 Legend Double Dagger -10.9 -13.1 84 35 11 16.1 101.40   -17 LegendNANA
06:00 Legend Double Dagger -11.2 -13.2 85 1 11 16.1 101.36   -17 LegendNANA
07:00 Legend Double Dagger -11.4 -13.6 84 1 9 16.1 101.32   -17 LegendNANA
08:00 Legend Double Dagger -11.3 -13.3 85 36 8 16.1 101.31   -16 LegendNANA
09:00 Legend Double Dagger -12.6 -14.5 86 34 11 16.1 101.29   -19 LegendNANA
10:00 Legend Double Dagger -12.2 -14.5 83 1 13 16.1 101.29   -19 LegendNANA
11:00 Legend Double Dagger -11.7 -14.2 82 1 11 16.1 101.22   -18 LegendNANA
12:00 Legend Double Dagger -11.4 -13.7 83 36 13 16.1 101.20   -18 LegendNANA
13:00 Legend Double Dagger -11.4 -13.9 82 1 13 16.1 101.20   -18 LegendNANA
14:00 Legend Double Dagger -11.6 -14.1 82 36 15 16.1 101.18   -19 LegendNANA
15:00 Legend Double Dagger -11.8 -14.2 83 36 11 16.1 101.16   -18 LegendNANA
16:00 Legend Double Dagger -12.1 -14.4 83 36 15 16.1 101.15   -19 LegendNANA
17:00 Legend Double Dagger -12.7 -14.7 85 36 13 16.1 101.14   -20 LegendNANA
18:00 Legend Double Dagger -13.4 -15.3 86 35 13 16.1 101.18   -20 LegendNANA
19:00 Legend Double Dagger -13.7 -15.8 84 35 13 16.1 101.14   -21 LegendNANA
20:00 Legend Double Dagger -14.1 -16.1 85 31 13 16.1 101.10   -21 LegendNANA
21:00 Legend Double Dagger -14.5 -16.6 84 33 11 16.1 101.05   -21 LegendNANA
22:00 Legend Double Dagger -14.0 -15.9 86 36 13 16.1 101.01   -21 LegendNANA
23:00 Legend Double Dagger -13.2 -14.9 87 35 9 16.1 100.94   -19 LegendNANA

Notes on Data Quality.

Legend

  • E = Estimated
  • M = Missing
  • NA = Not Available
  • ‡ = Partner data that is not subject to review by the National Climate Archives
Date modified: